"2009-10-24 00:00:00",1353886,5.076,199.2,5.077,0.874,9.35,103.5682,8.41,9.58,48.88,0,110.1,13.39,9.19,161.2
"2009-10-24 00:00:30",1353887,5.909,199.5,5.779,1.274,9.78,103.5575,8.38,9.46,48.83,0,110.1,13.39,9.16,161.5
"2009-10-24 00:01:00",1353888,5.902,198.8,6.896,1.201,10.45,103.5569,8.38,9.54,48.95,0,110.1,13.39,9.16,160.8
"2009-10-24 00:01:30",1353889,6.694,206.9,5.328,1.242,12.61,103.5569,8.38,9.68,49.07,0,110.1,13.39,9.16,168.9
"2009-10-24 00:02:00",1353890,5.875,201.3,7.834,1.231,11.33,103.5569,8.38,9.56,49.05,0,110.1,13.4,9.16,163.3
"2009-10-24 00:02:30",1353891,5.739,199.6,5.685,1.264,10.89,103.5569,8.38,9.64,49.31,0,110.1,13.39,9.16,161.6
"2009-10-24 00:03:00",1353892,6.124,201.8,6.487,1.28,11.06,103.5552,8.38,9.59,49.38,0,110.1,13.4,9.16,163.8
"2009-10-24 00:03:30",1353893,5.876,202.1,6.422,1.323,10.43,103.5428,8.34,9.55,49.31,0,110.1,13.4,9.13,164.1
"2009-10-24 00:04:00",1353894,4.981,198.6,1.298,0.096,8.47,103.5306,8.31,9.4,48.95,0,110.1,13.43,9.09,160.6
"2009-10-24 00:04:30",1353895,6.526,206.8,6.957,1.283,11.68,103.5239,8.3,9.56,48.98,0,110.1,13.4,9.08,168.8
"2009-10-24 00:05:00",1353896,6.828,209.1,5.937,1.158,13.08,103.523,8.29,9.64,48.94,0,110.1,13.4,9.08,171.1
"2009-10-24 00:05:30",1353897,6.166,204.4,7.116,1.319,11.08,103.5236,8.3,9.42,48.63,0,110.1,13.4,9.08,166.4
"2009-10-24 00:06:00",1353898,6.457,204.9,6.532,1.277,11.89,103.5242,8.3,9.63,48.85,0,110.1,13.4,9.08,166.9
"2009-10-24 00:06:30",1353899,6.028,201,6.622,1.308,10.87,103.5277,8.31,9.48,48.69,0,110.1,13.39,9.09,163.0
"2009-10-24 00:07:00",1353900,4.948,196.5,1.484,0.098,8.44,103.5303,8.31,9.37,48.56,0,110.1,13.42,9.09,158.5
"2009-10-24 00:07:30",1353901,5.257,196.8,1.594,0.133,8.52,103.53,8.31,9.34,48.46,0,110.1,13.39,9.09,158.8
"2009-10-24 00:08:00",1353902,6.234,202.4,6.749,1.301,11.01,103.5321,8.32,9.53,48.54,0,110.1,13.39,9.10,164.4
"2009-10-24 00:08:30",1353903,6.509,204.7,6.801,1.284,12.61,103.5359,8.33,9.58,48.61,0,110.1,13.39,9.11,166.7
"2009-10-24 00:09:00",1353904,7.117,207.2,5.347,1.053,13.32,103.5314,8.32,9.54,48.51,0,110.1,13.39,9.10,169.2
"2009-10-24 00:09:30",1353905,6.983,205.6,6.513,1.153,12.54,103.5326,8.32,9.58,48.45,0,110.1,13.39,9.10,167.6
"2009-10-24 00:10:00",1353906,5.77,199.3,5.335,1.08,9.59,103.5312,8.32,9.43,48.11,0,110.1,13.39,9.10,161.3
"2009-10-24 00:10:30",1353907,5.338,195.9,1.202,0.096,8.33,103.5353,8.33,9.32,47.91,0,110,13.42,9.11,157.9
"2009-10-24 00:11:00",1353908,6.457,202.1,7.082,1.295,10.8,103.534,8.32,9.41,47.88,0,110,13.4,9.10,164.1
"2009-10-24 00:11:30",1353909,6.361,204,7.003,1.285,11.29,103.5338,8.32,9.47,47.9,0,110.1,13.4,9.10,166.0
"2009-10-24 00:12:00",1353910,6.604,203.4,7.13,1.257,11.9,103.5276,8.31,9.52,47.91,0,110,13.4,9.09,165.4
"2009-10-24 00:12:30",1353911,7.147,206.9,6.318,1.156,12.71,103.5271,8.3,9.57,47.88,0,110.1,13.4,9.09,168.9
"2009-10-24 00:13:00",1353912,6.613,202.1,6.931,1.26,11.39,103.5247,8.3,9.46,47.6,0,110,13.4,9.08,164.1
"2009-10-24 00:13:30",1353913,5.294,195.8,1.063,0.072,8.38,103.5247,8.3,9.34,47.41,0,110,13.44,9.08,157.8
"2009-10-24 00:14:00",1353914,5.312,196.1,1.078,0.069,8.32,103.5239,8.3,9.31,47.48,0,110,13.44,9.08,158.1
"2009-10-24 00:14:30",1353915,6.396,203,6.908,1.286,10.92,103.5231,8.29,9.46,47.71,0,110,13.4,9.08,165.0
"2009-10-24 00:15:00",1353916,7.16,207.1,6.19,1.059,12.62,103.5242,8.3,9.46,47.75,0,110,13.4,9.08,169.1
"2009-10-24 00:15:30",1353917,6.34,199.7,6.311,1.304,12.27,103.5242,8.3,9.56,47.82,0,110,13.4,9.08,161.7
"2009-10-24 00:16:00",1353918,7.225,204.1,4.504,0.806,13.51,103.5242,8.3,9.53,48.06,0,110,13.4,9.08,166.1
"2009-10-24 00:16:30",1353919,4.922,191.3,4.134,0.468,9.39,103.5242,8.3,9.45,48.16,0,110,13.44,9.08,153.3
"2009-10-24 00:17:00",1353920,4.679,190.3,3.51,0.5,8.43,103.5242,8.3,9.33,48.14,0,110,13.4,9.08,152.3
"2009-10-24 00:17:30",1353921,5.039,194.1,7.051,1.139,9.42,103.5242,8.3,9.3,48.4,0,110,13.4,9.08,156.1
"2009-10-24 00:18:00",1353922,5.55,194.1,6.511,1.345,10.86,103.5242,8.3,9.44,48.81,0,110,13.41,9.08,156.1
"2009-10-24 00:18:30",1353923,5.977,197,6.665,1.303,12,103.5242,8.3,9.53,49.23,0,110,13.41,9.08,159.0
"2009-10-24 00:19:00",1353924,6.445,201.5,5.74,1.076,12.92,103.5242,8.3,9.5,49.29,0,110,13.41,9.08,163.5
"2009-10-24 00:19:30",1353925,5.851,199.9,7.129,1.24,11.52,103.5242,8.3,9.48,49.14,0,110,13.41,9.08,161.9
"2009-10-24 00:20:00",1353926,5.576,194.9,6.287,1.286,10.54,103.5242,8.3,9.45,49.03,0,110,13.41,9.08,156.9
"2009-10-24 00:20:30",1353927,4.498,189.5,1.865,0.135,8.29,103.5242,8.3,9.29,49.14,0,110,13.44,9.08,151.5
"2009-10-24 00:21:00",1353928,5.632,196.6,6.465,1.252,10.56,103.5242,8.3,9.44,49.2,0,110,13.41,9.08,158.6
"2009-10-24 00:21:30",1353929,5.236,190.4,5.937,1.182,9.82,103.5242,8.3,9.38,49.39,0,110,13.41,9.08,152.4
"2009-10-24 00:22:00",1353930,6.372,199.2,6.844,1.313,11.82,103.5237,8.3,9.47,49.61,0,110,13.41,9.08,161.2
"2009-10-24 00:22:30",1353931,6.604,204.7,4.755,1.16,12.66,103.5208,8.29,9.52,49.57,0,110,13.41,9.07,166.7
"2009-10-24 00:23:00",1353932,6.4,203.1,6.004,1.129,12.34,103.5149,8.27,9.55,49.51,0,110,13.4,9.05,165.1
"2009-10-24 00:23:30",1353933,6,198,6.926,1.21,10.43,103.5045,8.25,9.3,49.42,0,110,13.4,9.03,160.0
"2009-10-24 00:24:00",1353934,5.586,195,5.944,1.151,9.78,103.4906,8.21,9.42,49.83,0,110,13.4,8.99,157.0
"2009-10-24 00:24:30",1353935,5.876,193.9,6.228,1.258,10.09,103.4903,8.21,9.35,49.89,0,110,13.4,8.99,155.9
"2009-10-24 00:25:00",1353936,6.651,199.3,6.526,1.256,11.42,103.4903,8.21,9.43,50.01,0,110,13.4,8.99,161.3
"2009-10-24 00:25:30",1353937,5.737,194.2,6.168,1.235,10.25,103.4903,8.21,9.34,50.01,0,110,13.4,8.99,156.2
"2009-10-24 00:26:00",1353938,6.443,196,6.725,1.321,10.93,103.4903,8.21,9.38,50.13,0,110,13.4,8.99,158.0
"2009-10-24 00:26:30",1353939,6.715,198.5,6.325,1.301,11.54,103.4903,8.21,9.48,50.27,0,110,13.4,8.99,160.5
"2009-10-24 00:27:00",1353940,5.996,199.8,6.144,1.157,10.39,103.4878,8.2,9.31,50.13,0,110,13.4,8.99,161.8
"2009-10-24 00:27:30",1353941,6.127,202.5,7.74,1.265,10.57,103.4799,8.18,9.36,50.17,0,110,13.41,8.96,164.5
"2009-10-24 00:28:00",1353942,6.107,208.3,6.776,1.278,11.03,103.4686,8.16,9.46,50.17,0,110,13.41,8.94,170.3
"2009-10-24 00:28:30",1353943,6.136,206.8,6.737,1.281,10.15,103.4579,8.13,9.23,49.76,0,110,13.41,8.91,168.8
"2009-10-24 00:29:00",1353944,5.508,202,4.698,1.048,9.86,103.4565,8.12,9.35,49.95,0,110,13.41,8.90,164.0
"2009-10-24 00:29:30",1353945,7.02,206.7,6.094,1.161,12.28,103.4565,8.12,9.37,50.3,0,110,13.41,8.90,168.7
"2009-10-24 00:30:00",1353946,6.676,210.9,6.435,1.252,12.18,103.4565,8.12,9.39,50.15,0,110,13.41,8.90,172.9
"2009-10-24 00:30:30",1353947,5.782,204.5,5.802,1.125,9.84,103.4565,8.12,9.15,49.66,0,110,13.41,8.90,166.5
"2009-10-24 00:31:00",1353948,6.698,211,7.135,1.249,11.64,103.4565,8.12,9.4,49.88,0,110,13.41,8.90,173.0
"2009-10-24 00:31:30",1353949,6.72,214.8,6.909,1.198,11.52,103.4517,8.11,9.29,49.53,0,110,13.41,8.89,176.8
"2009-10-24 00:32:00",1353950,5.048,203.4,2.128,0.147,8.57,103.4429,8.09,9.13,49.28,0,110,13.45,8.87,165.4
"2009-10-24 00:32:30",1353951,5.682,206.8,6.094,1.133,10.11,103.4282,8.05,9.22,49.48,0,110,13.41,8.83,168.8
"2009-10-24 00:33:00",1353952,6.734,214.8,6.239,1.181,12.61,103.424,8.04,9.38,49.47,0,110,13.42,8.82,176.8
"2009-10-24 00:33:30",1353953,6.109,212.9,7.136,1.246,11.36,103.4226,8.04,9.29,49.25,0,110,13.41,8.82,174.9
"2009-10-24 00:34:00",1353954,6.01,217.5,6.826,1.248,11.12,103.4226,8.04,9.27,49,0,110,13.41,8.82,179.5
"2009-10-24 00:34:30",1353955,6.071,219.1,8.11,1.298,11.57,103.4226,8.04,9.37,48.92,0,110,13.41,8.82,181.1
"2009-10-24 00:35:00",1353956,5.538,214.3,5.437,1.113,9.81,103.4229,8.04,9.1,48.58,0,110,13.42,8.82,176.3
"2009-10-24 00:35:30",1353957,4.839,215.1,2.323,0.186,8.78,103.4231,8.04,9.09,48.49,0,110,13.45,8.82,177.1
"2009-10-24 00:36:00",1353958,5.813,219.9,6.854,1.193,11.37,103.4246,8.04,9.28,48.54,0,110,13.42,8.82,181.9
"2009-10-24 00:36:30",1353959,6.021,221.4,7.352,1.341,12.52,103.4261,8.05,9.36,48.63,0,110,13.42,8.83,183.4
"2009-10-24 00:37:00",1353960,6.576,229.2,7.087,1.203,12.65,103.4264,8.05,9.24,48.27,0,110,13.42,8.83,191.2
"2009-10-24 00:37:30",1353961,6.165,225.4,6.149,1.31,11.94,103.4275,8.05,9.33,47.89,0,110,13.42,8.83,187.4
"2009-10-24 00:38:00",1353962,5.486,219.8,6.805,1.077,10.36,103.4293,8.05,9.27,47.85,0,110,13.42,8.84,181.8
"2009-10-24 00:38:30",1353963,4.742,219.9,3.044,0.106,8.81,103.431,8.06,9.1,47.67,0,110,13.45,8.84,181.9
"2009-10-24 00:39:00",1353964,4.529,218,2.122,0.213,8.94,103.4316,8.06,9.1,47.74,0,110,13.45,8.84,180.0
"2009-10-24 00:39:30",1353965,5.932,227.6,7.144,1.181,12.13,103.4353,8.07,9.34,48.04,0,110,13.41,8.85,189.6
"2009-10-24 00:40:00",1353966,5.896,230.8,6.627,1.315,12.6,103.4478,8.1,9.36,47.62,0,110,13.41,8.88,192.8
"2009-10-24 00:40:30",1353967,6.51,229.4,4.075,1.008,13.36,103.4602,8.13,9.31,47.4,0,110,13.41,8.91,191.4
"2009-10-24 00:41:00",1353968,5.763,230,6.281,1.422,12.59,103.4679,8.15,9.37,47.44,0,110,13.41,8.93,192.0
"2009-10-24 00:41:30",1353969,4.986,225.2,5.625,0.99,9.75,103.4714,8.16,9.12,47.19,0,110,13.41,8.94,187.2
"2009-10-24 00:42:00",1353970,4.354,219.3,2.274,0.188,8.76,103.4711,8.16,9.15,47.2,0,110,13.45,8.94,181.3
"2009-10-24 00:42:30",1353971,3.977,225.6,2.796,0.158,9.23,103.4728,8.17,9.21,47.08,0,110,13.45,8.95,187.6
"2009-10-24 00:43:00",1353972,5.746,235.9,6.568,1.308,13.03,103.4769,8.18,9.3,46.93,0,110,13.41,8.96,197.9
"2009-10-24 00:43:30",1353973,4.823,227.1,8.07,1.245,11.41,103.4784,8.18,9.44,47.06,0,110,13.42,8.96,189.1
"2009-10-24 00:44:00",1353974,5.481,236.1,5.156,1.076,13.27,103.4852,8.2,9.41,47.09,0,110,13.42,8.98,198.1
"2009-10-24 00:44:30",1353975,4.952,227.3,6.87,1.285,11.44,103.5031,8.24,9.3,46.91,0,110,13.42,9.02,189.3
"2009-10-24 00:45:00",1353976,3.74,227.9,4.172,0.239,8.86,103.5125,8.27,9.24,46.78,0,110,13.45,9.05,189.9
"2009-10-24 00:45:30",1353977,3.647,234.5,3.178,0.193,8.82,103.5173,8.28,9.22,46.46,0,110,13.45,9.06,196.5
"2009-10-24 00:46:00",1353978,3.888,228.6,6.651,0.935,9.28,103.5216,8.29,9.22,46.43,0,110,13.43,9.07,190.6
"2009-10-24 00:46:30",1353979,5.042,227.3,7.712,1.357,11.58,103.5237,8.3,9.37,46.92,0,110,13.43,9.08,189.3
"2009-10-24 00:47:00",1353980,5.623,226.3,8.02,1.309,12.25,103.5231,8.29,9.41,47.13,0,110,13.43,9.08,188.3
"2009-10-24 00:47:30",1353981,6.463,230.1,5.123,0.748,13.89,103.5222,8.29,9.58,47.53,0,110,13.43,9.07,192.1
"2009-10-24 00:48:00",1353982,5.874,225.9,6.068,1.169,12.56,103.524,8.3,9.53,47.48,0,110,13.43,9.08,187.9
"2009-10-24 00:48:30",1353983,5.076,218.8,5.611,1.12,9.59,103.5248,8.3,9.29,47.24,0,110,13.43,9.08,180.8
"2009-10-24 00:49:00",1353984,4.603,213.3,1.591,0.113,8.58,103.5277,8.31,9.28,47.48,0,110,13.46,9.09,175.3
"2009-10-24 00:49:30",1353985,5.665,216.9,7.598,1.252,10.88,103.535,8.33,9.45,47.89,0,110,13.43,9.11,178.9
"2009-10-24 00:50:00",1353986,5.185,219.4,5.278,1.011,10.06,103.546,8.35,9.4,47.7,0,110,13.43,9.13,181.4
"2009-10-24 00:50:30",1353987,6.598,230.8,6.786,1.228,13.2,103.548,8.36,9.55,47.64,0,110,13.43,9.14,192.8
"2009-10-24 00:51:00",1353988,7.148,234.7,4.482,0.705,13.86,103.5531,8.37,9.63,47.48,0,110,13.43,9.15,196.7
"2009-10-24 00:51:30",1353989,6.253,236,7.209,1.324,12.16,103.5537,8.37,9.43,46.92,0,110,13.43,9.15,198.0
"2009-10-24 00:52:00",1353990,4.77,226,1.843,0.169,8.92,103.5554,8.38,9.32,46.7,0,110,13.46,9.16,188.0
"2009-10-24 00:52:30",1353991,5.525,230.7,5.291,1.056,9.72,103.5565,8.38,9.33,46.63,0,110,13.43,9.16,192.7
"2009-10-24 00:53:00",1353992,6.461,239.9,8.58,1.391,11.68,103.5587,8.39,9.49,46.66,0,110,13.43,9.17,201.9
"2009-10-24 00:53:30",1353993,5.617,243.5,6.78,1.139,10.56,103.5593,8.39,9.32,46.22,0,110,13.43,9.17,205.5
"2009-10-24 00:54:00",1353994,6.893,251.4,6.057,1.158,13.46,103.5593,8.39,9.59,46.24,0,110.1,13.43,9.17,213.4
"2009-10-24 00:54:30",1353995,6.677,252.5,6.916,1.19,13.12,103.5593,8.39,9.6,46.09,0,110,13.43,9.17,214.5
"2009-10-24 00:55:00",1353996,5.839,249.5,7.429,1.227,10.99,103.5593,8.39,9.39,45.65,0,110,13.43,9.17,211.5
"2009-10-24 00:55:30",1353997,5.135,239.3,1.867,0.194,8.88,103.5593,8.39,9.36,45.7,0,110,13.45,9.17,201.3
"2009-10-24 00:56:00",1353998,6.435,240.5,4.669,1.21,10.45,103.5593,8.39,9.35,45.97,0,110,13.42,9.17,202.5
"2009-10-24 00:56:30",1353999,6.704,251.9,8.59,1.274,11.35,103.5593,8.39,9.54,46.17,0,110,13.42,9.17,213.9
"2009-10-24 00:57:00",1354000,6.768,248.4,7.275,1.251,11.56,103.5658,8.4,9.45,45.99,0,110,13.42,9.19,210.4
"2009-10-24 00:57:30",1354001,7.504,254.6,4.043,0.931,13.61,103.5808,8.44,9.69,46.24,0,110,13.42,9.22,216.6
"2009-10-24 00:58:00",1354002,7.016,254.4,5.361,1.175,13.31,103.5918,8.47,9.64,45.82,0,110,13.42,9.25,216.4
"2009-10-24 00:58:30",1354003,5.708,249.3,6.278,1.236,11.21,103.5932,8.47,9.48,45.22,0,110,13.42,9.26,211.3
"2009-10-24 00:59:00",1354004,4.938,244.5,0.789,0.062,8.99,103.5932,8.47,9.41,44.96,0,110,13.45,9.26,206.5
"2009-10-24 00:59:30",1354005,6.187,251.6,7.144,1.3,11.61,103.5932,8.47,9.56,45.05,0,110,13.42,9.26,213.6
"2009-10-24 01:00:00",1354006,4.939,245.4,2.639,0.677,9.62,103.5932,8.47,9.53,44.89,0,110,13.42,9.26,207.4
"2009-10-24 01:00:30",1354007,5.935,249.9,7.061,1.313,11.67,103.596,8.48,9.53,44.62,0,110,13.43,9.26,211.9
"2009-10-24 01:01:00",1354008,6.986,253,4.75,0.895,14.09,103.6136,8.53,9.77,44.72,0,110,13.43,9.31,215.0
"2009-10-24 01:01:30",1354009,6.312,251.2,6.971,1.228,12.79,103.6268,8.56,9.66,44.41,0,110,13.43,9.34,213.2
"2009-10-24 01:02:00",1354010,5.16,251.2,5.759,1.045,10.69,103.6271,8.56,9.57,43.88,0,110,13.43,9.34,213.2
"2009-10-24 01:02:30",1354011,4.825,249.9,5.249,0.884,9.68,103.6271,8.56,9.5,43.68,0,110,13.43,9.34,211.9
"2009-10-24 01:03:00",1354012,4.755,250.1,3.01,0.683,9.57,103.628,8.56,9.6,43.64,0,110,13.43,9.34,212.1
"2009-10-24 01:03:30",1354013,5.801,257.3,6.442,1.37,11.94,103.6404,8.59,9.62,43.37,0,110,13.43,9.38,219.3
"2009-10-24 01:04:00",1354014,5.473,256.9,6.166,1.321,12,103.6539,8.63,9.67,43.1,0,110,13.43,9.41,218.9
"2009-10-24 01:04:30",1354015,6.018,257.4,6.063,1.239,13.39,103.6607,8.65,9.85,43.08,0,110,13.43,9.43,219.4
"2009-10-24 01:05:00",1354016,6.073,258.4,6.411,1.175,13.37,103.661,8.65,9.82,42.84,0,110,13.43,9.43,220.4
"2009-10-24 01:05:30",1354017,5.037,255,6.474,1.211,11.37,103.661,8.65,9.71,42.57,0,110,13.43,9.43,217.0
"2009-10-24 01:06:00",1354018,4.082,248.8,2.654,0.134,9.26,103.661,8.65,9.6,42.36,0,110,13.47,9.43,210.8
"2009-10-24 01:06:30",1354019,4.396,250.4,4.757,0.979,10.06,103.6774,8.69,9.62,42.27,0,110,13.43,9.47,212.4
"2009-10-24 01:07:00",1354020,5.199,254.6,5.726,1.332,11.98,103.6932,8.73,9.78,42.31,0,110,13.43,9.51,216.6
"2009-10-24 01:07:30",1354021,4.75,251.9,5.428,1.216,10.75,103.6949,8.73,9.65,42.04,0,110,13.43,9.52,213.9
"2009-10-24 01:08:00",1354022,4.707,258.6,9.25,1.192,11.97,103.6949,8.73,9.89,42.18,0,110,13.43,9.52,220.6
"2009-10-24 01:08:30",1354023,5.718,267,8.25,1.267,13.36,103.6958,8.74,9.92,42.07,0,110,13.43,9.52,229.0
"2009-10-24 01:09:00",1354024,5.481,260.3,7.236,1.276,12.68,103.7107,8.77,9.9,41.97,0,110,13.43,9.56,222.3
"2009-10-24 01:09:30",1354025,4.117,249.6,1.729,0.135,9.41,103.724,8.81,9.74,41.87,0,110,13.47,9.59,211.6
"2009-10-24 01:10:00",1354026,3.994,251.2,1.444,0.142,9.23,103.7288,8.82,9.79,41.92,0,110,13.47,9.60,213.2
"2009-10-24 01:10:30",1354027,5.083,257.3,6.321,1.288,11.46,103.7288,8.82,9.84,41.94,0,110,13.43,9.60,219.3
"2009-10-24 01:11:00",1354028,3.974,254.8,3.018,0.23,9.78,103.7288,8.82,9.84,41.91,0,110,13.47,9.60,216.8
"2009-10-24 01:11:30",1354029,4.515,256,6.101,0.768,10.45,103.7302,8.82,9.92,41.94,0,109.9,13.44,9.61,218.0
"2009-10-24 01:12:00",1354030,6.148,265.2,8.14,1.133,13.79,103.7472,8.87,10.02,42.02,0,110.1,13.44,9.65,227.2
"2009-10-24 01:12:30",1354031,6.036,251.8,7.601,1.196,13.36,103.7616,8.9,10.05,42.14,0,110,13.43,9.69,213.8
"2009-10-24 01:13:00",1354032,4.871,238.7,6.242,1.205,10.96,103.7627,8.91,9.97,42.45,0,110,13.44,9.69,200.7
"2009-10-24 01:13:30",1354033,4.054,238,1.307,0.07,9.17,103.7627,8.91,9.83,42.46,0,110,13.47,9.69,200.0
"2009-10-24 01:14:00",1354034,4.654,241.9,4.584,1.071,10.3,103.7627,8.91,10,42.45,0,110,13.43,9.69,203.9
"2009-10-24 01:14:30",1354035,5.221,242.9,5.287,1.289,10.7,103.7627,8.91,9.87,42.34,0,110,13.44,9.69,204.9
"2009-10-24 01:15:00",1354036,5.523,243.6,6.541,1.262,11.51,103.7627,8.91,9.94,42.38,0,110,13.44,9.69,205.6
"2009-10-24 01:15:30",1354037,5.874,241.9,7.446,1.337,12.26,103.7627,8.91,10.14,42.58,0,110,13.44,9.69,203.9
"2009-10-24 01:16:00",1354038,6.116,239.7,6.844,1.318,12.66,103.7627,8.91,10.14,42.41,0,110,13.44,9.69,201.7
"2009-10-24 01:16:30",1354039,6.223,239.5,7.339,1.303,12.06,103.763,8.91,10.05,42.48,0,110,13.43,9.69,201.5
"2009-10-24 01:17:00",1354040,5.642,236.1,7.542,1.165,10.61,103.7661,8.92,9.96,42.52,0,110,13.43,9.70,198.1
"2009-10-24 01:17:30",1354041,5.377,239.4,4.684,1.049,9.95,103.7678,8.92,9.97,42.75,0,110,13.43,9.70,201.4
"2009-10-24 01:18:00",1354042,6.592,248.2,6.095,1.309,12.26,103.7695,8.92,10.06,42.82,0,110,13.43,9.71,210.2
"2009-10-24 01:18:30",1354043,5.666,242.8,6.38,1.23,10.74,103.7689,8.92,9.97,42.75,0,110,13.43,9.71,204.8
"2009-10-24 01:19:00",1354044,6.087,244.4,6.907,1.339,13.03,103.7681,8.92,10.22,43.01,0,110,13.43,9.70,206.4
"2009-10-24 01:19:30",1354045,6.594,247,5.864,1.176,13.39,103.7669,8.92,10.19,42.94,0,110,13.44,9.70,209.0
"2009-10-24 01:20:00",1354046,5.835,241,6.462,1.294,11.72,103.7678,8.92,10.05,42.74,0,110,13.43,9.70,203.0
"2009-10-24 01:20:30",1354047,4.946,237.2,3.357,0.796,9.29,103.7653,8.91,9.92,42.64,0,110,13.43,9.70,199.2
"2009-10-24 01:21:00",1354048,5.521,244,7.194,1.233,11.33,103.7647,8.91,10.09,42.78,0,110,13.43,9.70,206.0
"2009-10-24 01:21:30",1354049,4.728,241.8,5.831,0.784,10.02,103.7641,8.91,10.03,42.71,0,110,13.43,9.69,203.8
"2009-10-24 01:22:00",1354050,5.396,249.9,7.852,1.284,11.52,103.7627,8.91,10,42.38,0,110,13.44,9.69,211.9
"2009-10-24 01:22:30",1354051,5.212,250,6.633,1.189,11.68,103.7636,8.91,10.15,42.25,0,110,13.44,9.69,212.0
"2009-10-24 01:23:00",1354052,6.04,255,6.267,1.228,13.5,103.763,8.91,10.2,42.11,0,110,13.44,9.69,217.0
"2009-10-24 01:23:30",1354053,4.705,251.4,5.917,1.248,11.25,103.7627,8.91,10.09,41.91,0,110,13.44,9.69,213.4
"2009-10-24 01:24:00",1354054,3.789,250.8,1.774,0.12,9.37,103.7642,8.91,9.91,41.56,0,110,13.47,9.69,212.8
"2009-10-24 01:24:30",1354055,5.272,259.9,7.344,1.342,11.89,103.7627,8.91,10.1,41.55,0,110,13.44,9.69,221.9
"2009-10-24 01:25:00",1354056,4.115,254.2,2.103,0.141,9.84,103.7627,8.91,10.03,41.41,0,110,13.47,9.69,216.2
"2009-10-24 01:25:30",1354057,4.128,254.8,4.606,0.696,10.07,103.7633,8.91,10.01,41.33,0,110,13.44,9.69,216.8
"2009-10-24 01:26:00",1354058,5.326,264.7,7.463,1.246,12.78,103.7633,8.91,10.02,41.25,0,110,13.44,9.69,226.7
"2009-10-24 01:26:30",1354059,5.031,267.6,6.62,1.249,12.92,103.7647,8.91,10.11,41.17,0,110,13.44,9.70,229.6
"2009-10-24 01:27:00",1354060,5.248,266.9,6.982,1.283,13.31,103.7664,8.92,10.2,41.23,0,110,13.44,9.70,228.9
"2009-10-24 01:27:30",1354061,4.421,263.6,5.957,1.166,10.95,103.7695,8.92,9.94,40.91,0,110,13.44,9.71,225.6
"2009-10-24 01:28:00",1354062,4.471,265.6,6.514,1.225,10.75,103.7709,8.93,9.94,40.84,0,110,13.43,9.71,227.6
"2009-10-24 01:28:30",1354063,4.521,268.3,5.166,1.246,11.79,103.7789,8.95,10.09,40.88,0,110,13.43,9.73,230.3
"2009-10-24 01:29:00",1354064,3.573,261.5,2.812,0.679,9.44,103.7839,8.96,9.94,40.63,0,110,13.43,9.74,223.5
"2009-10-24 01:29:30",1354065,4.511,268.6,7.764,1.328,11.52,103.7927,8.98,10,40.56,0,110,13.43,9.77,230.6
"2009-10-24 01:30:00",1354066,4.598,268.6,7.034,1.278,12.62,103.7981,9,10.18,40.58,0,110,13.43,9.78,230.6
"2009-10-24 01:30:30",1354067,5.178,272.9,6.172,1.075,14.05,103.7975,9,10.16,40.42,0,110,13.43,9.78,234.9
"2009-10-24 01:31:00",1354068,4.173,267.2,5.968,1.223,11.92,103.7981,9,10.16,40.37,0,110,13.43,9.78,229.2
"2009-10-24 01:31:30",1354069,3.249,263.6,2.795,0.072,10.18,103.7978,9,10.04,40.28,0,110,13.47,9.78,225.6
"2009-10-24 01:32:00",1354070,4.587,267.8,6.263,1.372,11.72,103.7987,9,10.13,40.43,0,110,13.43,9.78,229.8
"2009-10-24 01:32:30",1354071,3.554,261.5,2.032,0.482,9.68,103.7981,9,10.11,40.46,0,110,13.43,9.78,223.5
"2009-10-24 01:33:00",1354072,3.997,264.6,5.582,0.899,10.21,103.7992,9,10.02,40.29,0,110,13.43,9.78,226.6
"2009-10-24 01:33:30",1354073,4.093,263.6,5.555,1.001,10.15,103.799,9,10,40.22,0,110,13.44,9.78,225.6
"2009-10-24 01:34:00",1354074,5.127,267.6,6.698,1.273,12.56,103.7992,9,10.19,40.39,0,110,13.44,9.78,229.6
"2009-10-24 01:34:30",1354075,4.913,265.3,6.251,1.279,13.36,103.8027,9.01,10.29,40.43,0,110,13.44,9.79,227.3
"2009-10-24 01:35:00",1354076,4.795,264,6.587,1.252,12.33,103.8145,9.04,10.14,40.24,0,110,13.44,9.82,226.0
"2009-10-24 01:35:30",1354077,3.613,257.2,1.012,0.067,9.72,103.8266,9.07,10.02,40.13,0,110,13.48,9.85,219.2
"2009-10-24 01:36:00",1354078,4.267,260.8,4.974,1.087,10.16,103.8311,9.08,10.05,40.2,0,110,13.44,9.87,222.8
"2009-10-24 01:36:30",1354079,4.695,265.5,7.149,1.321,11.85,103.8332,9.09,10.19,40.16,0,110,13.44,9.87,227.5
"2009-10-24 01:37:00",1354080,3.285,258.4,0.515,0.029,9.51,103.8314,9.08,10.03,39.86,0,110,13.48,9.87,220.4
"2009-10-24 01:37:30",1354081,4.462,263,6.657,1.334,11.82,103.8337,9.09,10.16,39.96,0,110,13.44,9.87,225.0
"2009-10-24 01:38:00",1354082,4.112,259.1,6.569,1.211,11.74,103.834,9.09,10.25,40.11,0,110,13.44,9.87,221.1
"2009-10-24 01:38:30",1354083,5.375,263.7,5.837,1.056,13.85,103.8331,9.09,10.25,40.15,0,110,13.44,9.87,225.7
"2009-10-24 01:39:00",1354084,4.22,252.6,6.23,1.222,11.22,103.8329,9.09,10.2,40.22,0,110,13.44,9.87,214.6
"2009-10-24 01:39:30",1354085,3.622,247,4.155,0.669,9.71,103.8329,9.09,10.07,40.3,0,110,13.44,9.87,209.0
"2009-10-24 01:40:00",1354086,3.971,251.4,5.301,1.112,9.84,103.8331,9.09,10.11,40.36,0,110,13.44,9.87,213.4
"2009-10-24 01:40:30",1354087,4.47,258.2,7.526,1.289,11.59,103.832,9.08,10.19,40.59,0,110,13.44,9.87,220.2
"2009-10-24 01:41:00",1354088,3.06,253.4,0.993,0.056,9.37,103.8311,9.08,10.08,40.24,0,110,13.48,9.87,215.4
"2009-10-24 01:41:30",1354089,3.159,252.3,2.148,0.12,9.85,103.8329,9.09,10.19,40.26,0,110,13.48,9.87,214.3
"2009-10-24 01:42:00",1354090,5.196,256.2,6.124,1.022,13.69,103.834,9.09,10.31,40.55,0,110,13.44,9.87,218.2
"2009-10-24 01:42:30",1354091,5.078,258.5,6.201,1.246,13.71,103.8326,9.09,10.35,40.56,0,110,13.44,9.87,220.5
"2009-10-24 01:43:00",1354092,4.407,258.4,7.868,1.314,12.67,103.8343,9.09,10.32,40.2,0,110,13.44,9.87,220.4
"2009-10-24 01:43:30",1354093,3.424,258.5,4.964,0.894,10.22,103.8349,9.09,10.14,39.77,0,110,13.44,9.88,220.5
"2009-10-24 01:44:00",1354094,4.046,263.2,6.258,1.197,10.53,103.8314,9.08,10.11,39.71,0,110,13.44,9.87,225.2
"2009-10-24 01:44:30",1354095,4.572,264.4,6.414,1.237,11.74,103.8334,9.09,10.24,39.82,0,110,13.44,9.87,226.4
"2009-10-24 01:45:00",1354096,3.474,258.3,3.234,0.176,9.42,103.8346,9.09,10.11,39.6,0,110,13.47,9.87,220.3
"2009-10-24 01:45:30",1354097,3.863,261.1,3.843,0.239,9.64,103.834,9.09,10.09,39.67,0,110,13.47,9.87,223.1
"2009-10-24 01:46:00",1354098,5.675,266.6,7.383,1.377,12.91,103.834,9.09,10.33,39.92,0,110,13.44,9.87,228.6
"2009-10-24 01:46:30",1354099,6.077,271.3,5.538,1.167,13.87,103.8334,9.09,10.35,39.8,0,110,13.44,9.87,233.3
"2009-10-24 01:47:00",1354100,4.659,266.5,6.677,1.278,12.2,103.8355,9.09,10.31,39.6,0,110,13.44,9.88,228.5
"2009-10-24 01:47:30",1354101,4.026,262.5,3.895,0.992,10.61,103.8346,9.09,10.28,39.45,0,110,13.44,9.87,224.5
"2009-10-24 01:48:00",1354102,4.448,260.1,4.338,1.364,10.15,103.834,9.09,10.14,39.52,0,110,13.43,9.87,222.1
"2009-10-24 01:48:30",1354103,3.874,261.6,3.571,0.281,9.59,103.8361,9.09,10.18,39.47,0,110,13.47,9.88,223.6
"2009-10-24 01:49:00",1354104,3.992,252.6,3.258,0.156,9.24,103.8363,9.1,10.11,39.25,0,110,13.47,9.88,214.6
"2009-10-24 01:49:30",1354105,5.112,255.3,7.42,1.316,11.58,103.8425,9.11,10.24,39.39,0,110,13.44,9.90,217.3
"2009-10-24 01:50:00",1354106,6.14,263.9,7.379,1.229,13.99,103.8493,9.13,10.37,39.39,0,110,13.44,9.91,225.9
"2009-10-24 01:50:30",1354107,5.75,267.3,6.276,1.186,13.91,103.8541,9.14,10.37,39.29,0,110,13.44,9.92,229.3
"2009-10-24 01:51:00",1354108,4.373,257.2,6.374,0.801,11.43,103.8585,9.15,10.32,38.88,0,110,13.44,9.94,219.2
"2009-10-24 01:51:30",1354109,4.935,265.8,9.46,1.399,11.75,103.8662,9.17,10.3,38.68,0,110,13.44,9.96,227.8